Location: Bon Acre
(42.6442°N, 73.5758°W)
Time: 01:16:55
(UTC+00:00)

Cosmos 1076 Rocket - Pass Details

Date: 14 December 2025
Orbit: 582 x 603 km, 82.5° (Epoch: 17 January)

Event Time Altitude Azimuth Distance (km) Brightness Sun altitude
Rises 22:56:15 0° 346° (NNW) 2,858 7.0 -16.7°
Reaches altitude 10° 22:58:31 10° 341° (NNW) 1,953 6.2 -17.1°
Maximum altitude 23:02:41 48° 267° (W) 790 4.5 -17.9°
Drops below altitude 10° 23:06:49 10° 193° (SSW) 1,942 6.4 -18.6°
Sets 23:09:04 0° 187° (S) 2,840 7.2 -19.0°
